• Join FlightAware (Why Join?)
  • Login
  • US Flag 
06:40PM EDT


 

Airport Tracker/Info


-or-


 

Live Flight TrackerFlight Track Log ✈ AVN51 ✈ 30-Oct-2013 ✈ NZAA / AKL - NVVV / VLI

Flight Track Log - Related Links

Times and Time Zones

All times are in EDT time to prevent confusion due to time zone crossing. See the AVN51 flight status page for this flight to view local times or setup timezone preferences in your user account.

Time Position Orientation Groundspeed Altitude Reporting Facility
EDT Latitude Longitude Course Direction KTS MPH feet Rate Location/Type
08:23PM -37.0100 174.7930 253° West 98 113  Level FlightAware
08:24PM -37.0160 174.7700 252° West 157 181 200 1,080 Climbing FlightAware
08:24PM -37.0220 174.7510 252° West 162 186 1,000 1,500 Climbing FlightAware
08:25PM -37.0310 174.7190 251° West 186 214 1,600 1,200 Climbing FlightAware
08:25PM -37.0333 174.7167 252° West 181 208 1,200 Descending New Zealand
08:25PM -37.0360 174.7010 251° West 199 229 2,000 4,080 Climbing FlightAware
08:26PM -37.0470 174.6570 251° West 214 246 3,300 1,740 Climbing FlightAware
08:26PM -37.0500 174.6333 251° West 219 252 1,200 Descending New Zealand
08:26PM -37.0580 174.6190 250° West 246 283 3,900 8,400 Climbing FlightAware
08:26PM -37.0600 174.6050 250° West 246 283 4,200 2,160 Climbing FlightAware
08:27PM -37.0333 174.5667 250° West 270 311 2,400 Descending New Zealand
08:27PM -37.0350 174.5600 305° West 259 298 5,700 11,640 Climbing FlightAware
08:27PM -36.9980 174.5450 342° North 270 311 6,800 1,500 Climbing FlightAware
08:28PM -36.9380 174.5230 344° North 323 372 7,600 1,320 Climbing FlightAware ADS-B
08:29PM -36.8740 174.4980 343° North 349 402 8,700 1,860 Climbing FlightAware ADS-B
08:29PM -36.8300 174.4810 343° North 350 403 9,900 2,280 Climbing FlightAware ADS-B
08:30PM -36.7750 174.4600 343° North 360 414 11,200 2,400 Climbing FlightAware ADS-B
08:30PM -36.7667 174.4667 343° North 356 410 2,580 Descending New Zealand
08:30PM -36.7250 174.4410 343° North 364 419 12,500 10,620 Climbing FlightAware ADS-B
08:31PM -36.6667 174.4167 343° North 366 421 3,000 Descending New Zealand
08:31PM -36.6320 174.4050 343° North 357 411 15,400 12,060 Climbing FlightAware ADS-B
08:32PM -36.5833 174.3833 343° North 352 405 2,520 Descending New Zealand
08:33PM -36.5310 174.3660 343° North 363 418 18,100 18,180 Climbing FlightAware ADS-B
08:33PM -36.4833 174.3500 343° North 361 415 2,640 Descending New Zealand
08:33PM -36.4740 174.3450 343° North 359 413 19,700 32,820 Climbing FlightAware ADS-B
08:34PM -36.4180 174.3230 342° North 368 423 20,800 1,680 Climbing FlightAware ADS-B
08:34PM -36.3480 174.2970 343° North 379 436 21,900 1,200 Climbing FlightAware ADS-B
08:35PM -36.2667 174.2667 343° North 401 461 1,020 Descending New Zealand
08:36PM -36.2170 174.2470 343° North 417 480 23,200 21,900 Climbing FlightAware
08:36PM -36.1500 174.2167 343° North 419 482 1,500 Descending New Zealand
08:36PM -36.1520 174.2230 343° North 422 486 24,100 42,300 Climbing FlightAware
08:37PM -36.0940 174.2010 343° North 422 486 24,700 960 Climbing FlightAware
08:37PM -36.0333 174.1833 343° North 435 501 900 Descending New Zealand
08:38PM -35.9780 174.1570 343° North 451 519 25,600 23,340 Climbing FlightAware
08:38PM -35.9070 174.1310 343° North 453 521 26,500 900 Climbing FlightAware
08:39PM -35.8000 174.0833 343° North 471 542 600 Descending New Zealand
08:39PM -35.7830 174.0840 343° North 474 545 27,100 33,720 Climbing FlightAware
08:40PM -35.6880 174.0490 343° North 474 545 28,100 1,500 Climbing FlightAware
08:40PM -35.6667 174.0333 343° North 474 545 1,620 Descending New Zealand
08:41PM -35.5740 174.0060 343° North 469 540 29,600 19,740 Climbing FlightAware
08:41PM -35.5333 173.9833 343° North 468 539 1,680 Descending New Zealand
08:42PM -35.4710 173.9680 343° North 453 521 31,000 28,440 Climbing FlightAware
08:42PM -35.4000 173.9420 343° North 452 520 31,800 1,200 Climbing FlightAware
08:43PM -35.2833 173.9000 343° North 461 531 1,080 Descending New Zealand
08:43PM -35.2870 173.9000 343° North 455 524 32,800 44,640 Climbing FlightAware
08:44PM -35.1950 173.8660 343° North 457 526 33,500 660 Climbing FlightAware
08:44PM -35.1500 173.8500 343° North 465 535 480 Descending New Zealand
08:45PM -35.0710 173.8210 343° North 466 536 34,000 30,000 Climbing FlightAware
08:45PM -35.0333 173.8000 343° North 467 537  Descending New Zealand
08:45PM -35.0190 173.8020 343° North 466 536 34,000 28,320 Climbing FlightAware
08:46PM -34.9000 173.7500 343° North 465 535  Descending New Zealand
08:47PM -34.8850 173.7520 343° North 457 526 34,000 29,100 Climbing FlightAware
08:47PM -34.7833 173.7167 343° North 462 532  Descending New Zealand
08:48PM -34.7610 173.7070 343° North 454 522 34,000 37,740 Climbing FlightAware
08:48PM -34.6690 173.6740 343° North 453 521 34,000  Level FlightAware
08:48PM -34.6500 173.6667 343° North 461 531  Descending New Zealand
08:49PM -34.5460 173.6290 343° North 453 521 34,000 21,000 Climbing FlightAware
08:49PM -34.5167 173.6167 343° North 460 529  Descending New Zealand
08:50PM -34.4540 173.5960 343° North 452 520 34,000 25,140 Climbing FlightAware
08:50PM -34.4000 173.5667 343° North 459 528  Descending New Zealand
08:51PM -34.3640 173.5630 343° North 451 519 34,000 41,580 Climbing FlightAware
08:51PM -34.3020 173.5410 343° North 450 518 34,000  Level FlightAware
08:51PM -34.2667 173.5333 343° North 457 526  Descending New Zealand
08:52PM -34.2050 173.5060 343° North 455 524 34,000 26,100 Climbing FlightAware
08:53PM -34.1500 173.4833 343° North 455 524  Descending New Zealand
08:53PM -34.1190 173.4760 344° North 455 524 34,000 56,640 Climbing FlightAware
08:53PM -34.0810 173.4620 344° North 454 522 34,000  Level FlightAware
08:54PM -34.0333 173.4333 344° North 453 521  Descending New Zealand
08:54PM -33.9430 173.4130 344° North 451 519 34,000 24,000 Climbing FlightAware
08:55PM -33.9000 173.4000 344° North 450 518  Descending New Zealand
08:55PM -33.8610 173.3830 343° North 449 517 34,000 32,340 Climbing FlightAware
08:56PM -33.7833 173.3500 343° North 448 516  Descending New Zealand
08:56PM -33.7810 173.3540 343° North 440 506 34,000 26,460 Climbing FlightAware
08:57PM -33.6333 173.3000 343° North 437 503  Descending New Zealand
08:57PM -33.6570 173.3050 343° North 440 506 34,000 51,000 Climbing FlightAware
08:57PM -33.6180 173.2900 343° North 440 506 34,000  Level FlightAware
08:58PM -33.5333 173.2667 343° North 447 514  Descending New Zealand
08:58PM -33.5190 173.2510 343° North 440 506 34,000 23,700 Climbing FlightAware
08:59PM -33.4000 173.2167 343° North 437 503  Descending New Zealand
08:59PM -33.4400 173.2210 342° North 440 506 34,000 26,460 Climbing FlightAware
09:00PM -33.3000 173.1667 342° North 440 506  Descending New Zealand
09:00PM -33.3600 173.1890 342° North 440 506 34,000 27,900 Climbing FlightAware
09:01PM -33.1667 173.1333 342° North 437 503  Descending New Zealand
09:01PM -33.2590 173.1500 342° North 440 506 34,000 67,980 Climbing FlightAware
09:01PM -33.2400 173.1430 342° North 440 506 34,000  Level FlightAware
09:02PM -33.0667 173.0833 342° North 434 499  Descending New Zealand
09:02PM -33.1440 173.1060 342° North 440 506 34,000 30,000 Climbing FlightAware
09:03PM -32.9333 173.0500 342° North 437 503  Descending New Zealand
09:03PM -32.9333 173.0500 342° North 440 506 127,500 Level New Zealand
09:03PM -33.0650 173.0750 342° North 440 506 34,000 30,420 Climbing FlightAware
09:04PM -32.9660 173.0370 342° North 440 506 34,000  Level FlightAware
09:05PM -32.7000 172.9500 342° North 437 503  Descending New Zealand
09:05PM -32.8680 172.9980 342° North 440 506 34,000 37,740 Climbing FlightAware
09:06PM -32.8050 172.9740 342° North 440 506 34,000 -60 Level FlightAware
09:07PM -32.4667 172.8667 342° North 437 503 -60 Descending New Zealand
09:09PM -32.2333 172.7833 343° North 437 503 360 Level New Zealand
09:11PM -32.0000 172.7000 343° North 437 503 360 Level New Zealand
09:13PM -31.7667 172.6167 343° North 437 503 360 Level New Zealand
09:15PM -31.5333 172.5500 346° North 437 503 420 Level New Zealand
09:17PM -31.3000 172.4667 343° North 437 503 420 Level New Zealand
09:19PM -31.0667 172.3833 343° North 437 503 420 Level New Zealand
09:21PM -30.8333 172.3000 343° North 437 503 420 Level New Zealand
09:23PM -30.6000 172.2167 343° North 437 503 420 Level New Zealand
09:25PM -30.3667 172.1333 343° North 437 503 480 Level New Zealand
09:27PM -30.1333 172.0500 343° North 437 503 480 Level New Zealand
09:29PM -29.9000 171.9833 346° North 437 503 480 Level New Zealand
09:31PM -29.6667 171.9000 343° North 437 503 540 Level New Zealand
09:33PM -29.4333 171.8167 343° North 434 499 540 Level New Zealand
09:35PM -29.1833 171.7333 344° North 447 514 540 Level New Zealand
09:37PM -28.9500 171.6500 343° North 447 514 600 Level New Zealand
09:39PM -28.7167 171.5833 346° North 447 514 600 Level New Zealand
09:41PM -28.4667 171.5000 344° North 447 514 600 Level New Zealand
09:43PM -28.2333 171.4167 343° North 447 514 660 Level New Zealand
09:45PM -28.0000 171.3333 342° North 447 514 660 Level New Zealand
09:47PM -27.7500 171.2667 347° North 447 514 720 Level New Zealand
09:49PM -27.5167 171.1833 342° North 447 514 780 Level New Zealand
09:51PM -27.2667 171.1000 343° North 447 514 780 Level New Zealand
09:53PM -27.0333 171.0333 346° North 447 514 840 Level New Zealand
09:55PM -26.8000 170.9500 342° North 447 514 900 Level New Zealand
09:57PM -26.5500 170.8833 347° North 447 514 960 Level New Zealand
09:59PM -26.3167 170.8000 342° North 447 514 1,020 Level New Zealand
10:01PM -26.0667 170.7167 343° North 447 514 1,080 Level New Zealand
10:03PM -25.8404 170.6477 345° North  Level Estimated
10:10PM -25.0067 170.3958 345° North  Level Estimated
10:11PM -24.8875 170.3600 345° North  Level Estimated
10:12PM -24.7684 170.3244 345° North  Level Estimated
10:13PM -24.6492 170.2888 345° North  Level Estimated
10:14PM -24.5300 170.2533 345° North  Level Estimated
10:15PM -24.4108 170.2179 345° North  Level Estimated
10:16PM -24.2917 170.1825 345° North  Level Estimated
10:17PM -24.1724 170.1472 345° North  Level Estimated
10:18PM -24.0532 170.1120 345° North  Level Estimated
10:19PM -23.9340 170.0768 345° North  Level Estimated
10:20PM -23.8148 170.0417 345° North  Level Estimated
10:21PM -23.6956 170.0067 345° North  Level Estimated
10:22PM -23.5763 169.9717 345° North  Level Estimated
10:23PM -23.4571 169.9368 345° North  Level Estimated
10:24PM -23.3379 169.9019 345° North  Level Estimated
10:25PM -23.2186 169.8671 345° North  Level Estimated
10:26PM -23.0993 169.8324 345° North  Level Estimated
10:27PM -22.9801 169.7977 345° North  Level Estimated
10:27PM -22.8290 169.6860 345° North 447 514 32,000  Level FlightAware
10:28PM -22.8608 169.7631 345° North  Level Estimated
10:28PM -22.7330 169.6550 343° North 449 517 32,000  Level FlightAware
10:29PM -22.6450 169.6260 343° North 449 517 32,000  Level FlightAware
10:30PM -22.6050 169.6130 343° North 449 517 32,000  Level FlightAware
10:31PM -22.5030 169.5790 343° North 449 517 32,000  Level FlightAware
10:31PM -22.4220 169.5530 343° North 449 517 32,000  Level FlightAware
10:32PM -22.3210 169.5190 343° North 449 517 32,000  Level FlightAware
10:33PM -22.2400 169.4920 343° North 449 517 32,000  Level FlightAware
10:34PM -22.1590 169.4660 343° North 449 517 32,000  Level FlightAware
10:34PM -22.1180 169.4520 342° North 449 517 32,000  Level FlightAware
10:35PM -22.0140 169.4180 343° North 449 517 32,000  Level FlightAware
10:36PM -21.7580 169.3530 347° North 455 524 32,000  Level FlightAware
10:37PM -21.6560 169.3220 344° North 454 522 32,000  Level FlightAware
10:38PM -21.5860 169.2990 343° North 454 522 32,000  Level FlightAware
10:38PM -21.5260 169.2790 343° North 454 522 32,000  Level FlightAware
10:39PM -21.4240 169.2450 343° North 454 522 32,000  Level FlightAware
10:40PM -21.3420 169.2180 343° North 454 522 32,000  Level FlightAware
10:41PM -21.2600 169.1920 344° North 454 522 32,000  Level FlightAware
10:42PM -21.1590 169.1590 343° North 454 522 32,000  Level FlightAware
10:43PM -21.0960 169.1380 343° North 454 522 32,000  Level FlightAware
10:43PM -21.0310 169.1170 343° North 454 522 32,000  Level FlightAware
10:44PM -20.9270 169.0830 343° North 454 522 32,000  Level FlightAware
10:45PM -20.8250 169.0490 343° North 454 522 32,000  Level FlightAware
10:46PM -20.7430 169.0220 343° North 454 522 32,000  Level FlightAware
10:47PM -20.6810 169.0020 343° North 454 522 32,000  Level FlightAware
10:50PM -20.3312 168.9206 348° North  Level Estimated
10:51PM -20.2105 168.8926 348° North  Level Estimated
10:52PM -20.0899 168.8647 348° North  Level Estimated
10:53PM -19.9692 168.8368 348° North  Level Estimated
10:54PM -19.8486 168.8089 348° North  Level Estimated
10:55PM -19.7279 168.7811 348° North  Level Estimated
10:56PM -19.6072 168.7534 348° North  Level Estimated
10:57PM -19.4866 168.7256 348° North  Level Estimated
10:58PM -19.3659 168.6980 348° North  Level Estimated
10:59PM -19.2452 168.6703 348° North  Level Estimated
11:00PM -19.1245 168.6427 348° North  Level Estimated
11:01PM -19.0038 168.6152 348° North  Level Estimated
11:02PM -18.8831 168.5876 348° North  Level Estimated
11:03PM -18.7624 168.5602 348° North  Level Estimated
11:04PM -18.6417 168.5327 348° North  Level Estimated
11:05PM -18.5210 168.5053 348° North  Level Estimated
11:06PM -18.4003 168.4780 348° North  Level Estimated
11:07PM -18.2796 168.4506 348° North  Level Estimated
11:08PM -18.1589 168.4233 348° North  Level Estimated
11:09PM -18.0382 168.3961 348° North  Level Estimated
11:10PM -17.9175 168.3689 348° North  Level Estimated
11:11PM -17.7967 168.3417 348° North  Level Estimated
11:12PM -17.6993 168.3198 348° North  Level Estimated
11:13PM -17.6993 168.3198 37° Northeast  Level Estimated
11:14PM -17.6993 168.3198 143° Southeast  Level Estimated
11:15PM -17.6993 168.3198 37° Northeast  Level Estimated
11:16PM -17.6993 168.3198 143° Southeast  Level Estimated
11:17PM -17.6993 168.3198 37° Northeast  Level Estimated
11:18PM -17.6993 168.3198 143° Southeast  Level Estimated
11:19PM -17.6993 168.3198 37° Northeast  Level Estimated
11:20PM -17.6993 168.3198 143° Southeast  Level Estimated
11:21PM -17.6993 168.3198 37° Northeast  Level Estimated
11:22PM -17.6993 168.3198 143° Southeast  Level Estimated